Track STARLINK-1669 now! 10-day predictions STARLINK-1669 is classified as:
1 47624U 21012E 21109.58334491 -.00419401 00000-0 -72663-2 0 9996 2 47624 53.0470 152.4711 0001240 76.6122 148.0501 15.51806487 1764